Time,TemperatureF,DewpointF,PressureIn,WindDirection,WindDirectionDegrees,WindSpeedMPH,WindSpeedGustMPH,Humidity,HourlyPrecipIn,Conditions,Clouds,dailyrainin,SoftwareType,DateUTC
2013-03-23 00:03:00,34.3,30.0,30.02,SE,139,4.0,4.0,84,0.00,,,0.00,Wunderground v.1.15,2013-03-23 05:03:00,
2013-03-23 00:09:00,34.4,29.5,30.03,South,186,2.0,4.0,82,0.00,,,0.00,Wunderground v.1.15,2013-03-23 05:09:00,
2013-03-23 00:14:00,34.7,29.2,30.02,North,355,1.0,4.0,80,0.00,,,0.00,Wunderground v.1.15,2013-03-23 05:14:00,
2013-03-23 00:20:00,34.9,29.4,30.01,SE,128,6.0,6.0,80,0.00,,,0.00,Wunderground v.1.15,2013-03-23 05:20:00,
2013-03-23 00:25:00,34.8,29.6,30.01,ESE,110,8.0,8.0,81,0.00,,,0.00,Wunderground v.1.15,2013-03-23 05:25:00,
2013-03-23 00:30:00,34.6,30.0,30.01,NW,319,3.0,5.0,83,0.00,,,0.00,Wunderground v.1.15,2013-03-23 05:30:00,
2013-03-23 00:36:00,34.5,30.5,30.01,ESE,114,3.0,11.0,85,0.00,,,0.00,Wunderground v.1.15,2013-03-23 05:36:00,
2013-03-23 00:42:00,34.4,29.8,30.01,WNW,289,2.0,6.0,83,0.00,,,0.00,Wunderground v.1.15,2013-03-23 05:42:00,
2013-03-23 00:48:00,34.4,29.8,30.01,ESE,108,3.0,6.0,83,0.00,,,0.00,Wunderground v.1.15,2013-03-23 05:48:00,
2013-03-23 00:53:00,34.5,29.9,30.01,East,86,3.0,8.0,83,0.00,,,0.00,Wunderground v.1.15,2013-03-23 05:53:00,
2013-03-23 00:59:00,34.7,29.5,30.02,SE,146,1.0,8.0,81,0.00,,,0.00,Wunderground v.1.15,2013-03-23 05:59:00,
2013-03-23 01:04:00,35.1,29.2,30.02,SE,128,1.0,4.0,79,0.00,,,0.00,Wunderground v.1.15,2013-03-23 06:04:00,
2013-03-23 01:10:00,35.4,29.8,30.01,SE,128,3.0,3.0,80,0.00,,,0.00,Wunderground v.1.15,2013-03-23 06:10:00,
2013-03-23 01:16:00,35.7,30.1,30.00,SSE,164,1.0,3.0,80,0.00,,,0.00,Wunderground v.1.15,2013-03-23 06:16:00,
2013-03-23 01:21:00,35.9,30.0,30.00,SSE,150,4.0,4.0,79,0.00,,,0.00,Wunderground v.1.15,2013-03-23 06:21:00,
2013-03-23 01:27:00,35.9,29.7,30.00,SW,216,4.0,4.0,78,0.00,,,0.00,Wunderground v.1.15,2013-03-23 06:27:00,
2013-03-23 01:33:00,36.0,30.1,30.00,SE,124,4.0,4.0,79,0.00,,,0.00,Wunderground v.1.15,2013-03-23 06:33:00,
2013-03-23 01:39:00,36.0,29.8,30.00,South,175,4.0,5.0,78,0.00,,,0.00,Wunderground v.1.15,2013-03-23 06:39:00,
2013-03-23 01:44:00,35.9,30.3,29.99,North,360,3.0,6.0,80,0.00,,,0.00,Wunderground v.1.15,2013-03-23 06:44:00,
2013-03-23 01:50:00,35.7,30.1,29.99,South,173,3.0,4.0,80,0.00,,,0.00,Wunderground v.1.15,2013-03-23 06:50:00,
2013-03-23 01:55:00,35.5,30.2,30.00,South,171,3.0,4.0,81,0.00,,,0.00,Wunderground v.1.15,2013-03-23 06:55:00,
2013-03-23 02:00:00,35.3,29.7,30.00,SSE,149,2.0,3.0,80,0.00,,,0.00,Wunderground v.1.15,2013-03-23 07:00:00,
2013-03-23 02:05:00,35.5,29.3,30.00,SE,136,2.0,3.0,78,0.00,,,0.00,Wunderground v.1.15,2013-03-23 07:05:00,
2013-03-23 02:10:00,35.7,29.8,30.00,SE,127,1.0,4.0,79,0.00,,,0.00,Wunderground v.1.15,2013-03-23 07:10:00,
2013-03-23 02:15:00,36.0,30.1,29.99,ESE,121,5.0,8.0,79,0.00,,,0.00,Wunderground v.1.15,2013-03-23 07:15:00,
2013-03-23 02:20:00,36.3,30.1,29.99,SE,132,3.0,7.0,78,0.00,,,0.00,Wunderground v.1.15,2013-03-23 07:20:00,
2013-03-23 02:25:00,36.5,30.3,29.99,ESE,114,4.0,7.0,78,0.00,,,0.00,Wunderground v.1.15,2013-03-23 07:25:00,
2013-03-23 02:30:00,36.5,30.6,29.98,South,169,6.0,7.0,79,0.00,,,0.00,Wunderground v.1.15,2013-03-23 07:30:00,
2013-03-23 02:35:00,36.3,30.4,29.98,South,183,4.0,9.0,79,0.00,,,0.00,Wunderground v.1.15,2013-03-23 07:35:00,
2013-03-23 02:41:00,36.2,30.3,29.98,SSW,202,2.0,5.0,79,0.00,,,0.00,Wunderground v.1.15,2013-03-23 07:41:00,
2013-03-23 02:46:00,36.3,30.7,29.98,South,176,4.0,7.0,80,0.00,,,0.00,Wunderground v.1.15,2013-03-23 07:46:00,
2013-03-23 02:51:00,36.3,30.4,29.97,SE,138,4.0,7.0,79,0.00,,,0.00,Wunderground v.1.15,2013-03-23 07:51:00,
2013-03-23 02:56:00,36.2,30.3,29.96,SE,134,6.0,10.0,79,0.00,,,0.00,Wunderground v.1.15,2013-03-23 07:56:00,
2013-03-23 03:00:00,36.0,30.4,29.96,SE,137,6.0,8.0,80,0.00,,,0.00,Wunderground v.1.15,2013-03-23 08:00:00,
2013-03-23 03:05:00,35.9,30.3,29.97,SSE,159,2.0,9.0,80,0.00,,,0.00,Wunderground v.1.15,2013-03-23 08:05:00,
2013-03-23 03:11:00,35.9,30.3,29.97,SE,128,7.0,8.0,80,0.00,,,0.00,Wunderground v.1.15,2013-03-23 08:11:00,
2013-03-23 03:16:00,35.9,30.6,29.97,SSW,192,4.0,9.0,81,0.00,,,0.00,Wunderground v.1.15,2013-03-23 08:16:00,
2013-03-23 03:21:00,36.0,31.0,29.97,SE,146,3.0,4.0,82,0.00,,,0.01,Wunderground v.1.15,2013-03-23 08:21:00,
2013-03-23 03:26:00,35.9,31.2,29.98,ESE,119,1.0,4.0,83,0.10,,,0.02,Wunderground v.1.15,2013-03-23 08:26:00,
2013-03-23 03:31:00,35.7,31.3,29.97,SE,136,3.0,5.0,84,0.10,,,0.02,Wunderground v.1.15,2013-03-23 08:31:00,
2013-03-23 03:36:00,35.2,31.4,29.97,SSE,153,4.0,9.0,86,0.08,,,0.03,Wunderground v.1.15,2013-03-23 08:36:00,
2013-03-23 03:41:00,34.7,31.5,29.95,SSE,152,5.0,8.0,88,0.10,,,0.04,Wunderground v.1.15,2013-03-23 08:41:00,
2013-03-23 03:46:00,34.4,31.8,29.95,ESE,114,9.0,9.0,90,0.09,,,0.04,Wunderground v.1.15,2013-03-23 08:46:00,
2013-03-23 03:51:00,34.2,31.8,29.96,South,188,3.0,7.0,91,0.07,,,0.05,Wunderground v.1.15,2013-03-23 08:51:00,
2013-03-23 03:56:00,34.1,31.7,29.96,SSE,159,4.0,9.0,91,0.12,,,0.06,Wunderground v.1.15,2013-03-23 08:56:00,
2013-03-23 04:02:00,33.9,31.8,29.96,SSE,156,10.0,10.0,92,0.11,,,0.07,Wunderground v.1.15,2013-03-23 09:02:00,
2013-03-23 04:07:00,33.8,31.7,29.97,ESE,115,8.0,10.0,92,0.10,,,0.08,Wunderground v.1.15,2013-03-23 09:07:00,
2013-03-23 04:12:00,33.9,32.1,29.98,SE,128,0.0,5.0,93,0.08,,,0.08,Wunderground v.1.15,2013-03-23 09:12:00,
2013-03-23 04:17:00,34.1,32.3,29.98,SE,132,6.0,8.0,93,0.05,,,0.08,Wunderground v.1.15,2013-03-23 09:17:00,
2013-03-23 04:22:00,34.3,32.5,29.96,SSE,167,5.0,12.0,93,0.04,,,0.09,Wunderground v.1.15,2013-03-23 09:22:00,
2013-03-23 04:27:00,34.4,32.6,29.95,SE,128,7.0,12.0,93,0.20,,,0.11,Wunderground v.1.15,2013-03-23 09:27:00,
2013-03-23 04:32:00,34.7,33.2,29.95,SE,143,5.0,13.0,94,0.15,,,0.12,Wunderground v.1.15,2013-03-23 09:32:00,
2013-03-23 04:37:00,34.8,33.2,29.94,SSW,202,5.0,13.0,94,0.07,,,0.12,Wunderground v.1.15,2013-03-23 09:37:00,
2013-03-23 04:42:00,34.8,33.2,29.95,SSE,153,6.0,10.0,94,0.05,,,0.13,Wunderground v.1.15,2013-03-23 09:42:00,
2013-03-23 04:47:00,34.7,33.2,29.96,SSE,159,6.0,12.0,94,0.05,,,0.13,Wunderground v.1.15,2013-03-23 09:47:00,
2013-03-23 04:52:00,34.7,33.2,29.96,ENE,76,4.0,9.0,94,0.05,,,0.13,Wunderground v.1.15,2013-03-23 09:52:00,
2013-03-23 04:57:00,34.7,33.2,29.96,ESE,116,2.0,10.0,94,0.04,,,0.13,Wunderground v.1.15,2013-03-23 09:57:00,
2013-03-23 05:02:00,34.7,33.2,29.96,South,177,3.0,7.0,94,0.00,,,0.13,Wunderground v.1.15,2013-03-23 10:02:00,
2013-03-23 05:07:00,34.7,33.2,29.96,SE,136,4.0,10.0,94,0.00,,,0.13,Wunderground v.1.15,2013-03-23 10:07:00,
2013-03-23 05:12:00,34.8,33.2,29.97,South,172,4.0,9.0,94,0.00,,,0.13,Wunderground v.1.15,2013-03-23 10:12:00,
2013-03-23 05:17:00,34.8,33.2,29.96,SE,140,5.0,10.0,94,0.00,,,0.13,Wunderground v.1.15,2013-03-23 10:17:00,
2013-03-23 05:22:00,34.8,33.5,29.96,East,80,7.0,11.0,95,0.00,,,0.13,Wunderground v.1.15,2013-03-23 10:22:00,
2013-03-23 05:27:00,34.8,33.5,29.97,SE,138,4.0,11.0,95,0.00,,,0.13,Wunderground v.1.15,2013-03-23 10:27:00,
2013-03-23 05:32:00,35.1,33.8,29.97,East,88,5.0,9.0,95,0.00,,,0.13,Wunderground v.1.15,2013-03-23 10:32:00,
2013-03-23 05:37:00,35.2,33.9,29.97,SE,134,5.0,9.0,95,0.00,,,0.13,Wunderground v.1.15,2013-03-23 10:37:00,
2013-03-23 05:42:00,35.2,33.9,29.97,SE,126,5.0,11.0,95,0.00,,,0.13,Wunderground v.1.15,2013-03-23 10:42:00,
2013-03-23 05:47:00,35.5,34.2,29.97,ESE,121,11.0,11.0,95,0.00,,,0.13,Wunderground v.1.15,2013-03-23 10:47:00,
2013-03-23 05:53:00,35.7,34.4,29.98,SE,138,3.0,7.0,95,0.00,,,0.13,Wunderground v.1.15,2013-03-23 10:53:00,
2013-03-23 05:58:00,35.8,34.5,29.99,East,89,3.0,7.0,95,0.00,,,0.13,Wunderground v.1.15,2013-03-23 10:58:00,
2013-03-23 06:03:00,35.8,34.5,29.98,SE,144,6.0,11.0,95,0.00,,,0.13,Wunderground v.1.15,2013-03-23 11:03:00,
2013-03-23 06:08:00,35.8,34.5,29.97,East,88,6.0,13.0,95,0.00,,,0.13,Wunderground v.1.15,2013-03-23 11:08:00,
2013-03-23 06:13:00,35.7,34.4,29.97,SE,126,5.0,9.0,95,0.00,,,0.13,Wunderground v.1.15,2013-03-23 11:13:00,
2013-03-23 06:18:00,35.6,34.3,29.96,NW,306,2.0,13.0,95,0.00,,,0.13,Wunderground v.1.15,2013-03-23 11:18:00,
2013-03-23 06:23:00,35.5,34.2,29.96,SE,134,8.0,10.0,95,0.00,,,0.13,Wunderground v.1.15,2013-03-23 11:23:00,
2013-03-23 06:28:00,35.2,33.9,29.96,SE,124,6.0,10.0,95,0.00,,,0.13,Wunderground v.1.15,2013-03-23 11:28:00,
2013-03-23 06:34:00,35.1,33.8,29.95,East,91,9.0,9.0,95,0.00,,,0.13,Wunderground v.1.15,2013-03-23 11:34:00,
2013-03-23 06:39:00,35.0,33.7,29.95,SSW,192,2.0,9.0,95,0.00,,,0.13,Wunderground v.1.15,2013-03-23 11:39:00,
2013-03-23 06:44:00,34.9,33.6,29.96,SE,132,4.0,9.0,95,0.00,,,0.13,Wunderground v.1.15,2013-03-23 11:44:00,
2013-03-23 06:49:00,34.9,33.6,29.96,SE,138,3.0,9.0,95,0.00,,,0.13,Wunderground v.1.15,2013-03-23 11:49:00,
2013-03-23 06:54:00,34.9,33.6,29.97,SE,134,1.0,8.0,95,0.00,,,0.13,Wunderground v.1.15,2013-03-23 11:54:00,
2013-03-23 06:59:00,35.0,33.7,29.98,SE,130,4.0,8.0,95,0.00,,,0.13,Wunderground v.1.15,2013-03-23 11:59:00,
2013-03-23 07:04:00,35.0,33.7,29.98,SE,136,1.0,5.0,95,0.00,,,0.13,Wunderground v.1.15,2013-03-23 12:04:00,
2013-03-23 07:09:00,35.2,33.9,29.99,ENE,63,2.0,5.0,95,0.00,,,0.13,Wunderground v.1.15,2013-03-23 12:09:00,
2013-03-23 07:14:00,35.3,34.0,29.98,ESE,105,2.0,5.0,95,0.00,,,0.13,Wunderground v.1.15,2013-03-23 12:14:00,
2013-03-23 07:19:00,35.4,34.1,29.99,South,169,4.0,8.0,95,0.00,,,0.13,Wunderground v.1.15,2013-03-23 12:19:00,
2013-03-23 07:24:00,35.5,34.2,29.99,ESE,104,3.0,8.0,95,0.00,,,0.13,Wunderground v.1.15,2013-03-23 12:24:00,
2013-03-23 07:29:00,35.4,34.1,29.99,East,101,6.0,8.0,95,0.00,,,0.13,Wunderground v.1.15,2013-03-23 12:29:00,
2013-03-23 07:34:00,35.4,34.1,29.98,SE,129,3.0,8.0,95,0.00,,,0.13,Wunderground v.1.15,2013-03-23 12:34:00,
2013-03-23 07:39:00,35.4,34.1,29.99,SE,146,4.0,9.0,95,0.00,,,0.13,Wunderground v.1.15,2013-03-23 12:39:00,
2013-03-23 07:44:00,35.5,34.2,29.98,South,190,7.0,9.0,95,0.00,,,0.13,Wunderground v.1.15,2013-03-23 12:44:00,
2013-03-23 07:49:00,35.4,34.4,29.99,SW,215,4.0,9.0,96,0.00,,,0.13,Wunderground v.1.15,2013-03-23 12:49:00,
2013-03-23 07:54:00,35.4,34.4,29.99,SE,142,4.0,9.0,96,0.00,,,0.13,Wunderground v.1.15,2013-03-23 12:54:00,
2013-03-23 08:00:00,35.4,34.4,29.98,SE,130,3.0,5.0,96,0.00,,,0.13,Wunderground v.1.15,2013-03-23 13:00:00,
2013-03-23 08:05:00,35.4,34.4,29.99,SSE,159,4.0,9.0,96,0.00,,,0.13,Wunderground v.1.15,2013-03-23 13:05:00,
2013-03-23 08:10:00,35.4,34.4,29.99,SE,128,2.0,8.0,96,0.00,,,0.13,Wunderground v.1.15,2013-03-23 13:10:00,
2013-03-23 08:15:00,35.5,34.5,29.99,South,170,6.0,8.0,96,0.00,,,0.13,Wunderground v.1.15,2013-03-23 13:15:00,
2013-03-23 08:20:00,35.5,34.5,29.98,SE,130,4.0,6.0,96,0.00,,,0.13,Wunderground v.1.15,2013-03-23 13:20:00,
2013-03-23 08:25:00,35.6,34.6,29.99,SE,136,3.0,7.0,96,0.00,,,0.13,Wunderground v.1.15,2013-03-23 13:25:00,
2013-03-23 08:30:00,35.7,34.7,29.99,East,79,1.0,6.0,96,0.00,,,0.13,Wunderground v.1.15,2013-03-23 13:30:00,
2013-03-23 08:35:00,35.7,34.7,29.99,ESE,120,3.0,7.0,96,0.00,,,0.13,Wunderground v.1.15,2013-03-23 13:35:00,
2013-03-23 08:40:00,35.8,34.8,29.99,South,169,2.0,4.0,96,0.00,,,0.13,Wunderground v.1.15,2013-03-23 13:40:00,
2013-03-23 08:45:00,35.8,34.8,29.99,ESE,103,1.0,7.0,96,0.00,,,0.13,Wunderground v.1.15,2013-03-23 13:45:00,
2013-03-23 08:50:00,35.9,34.9,29.99,SSE,150,3.0,5.0,96,0.00,,,0.13,Wunderground v.1.15,2013-03-23 13:50:00,
2013-03-23 08:55:00,36.1,35.1,29.98,SSE,152,2.0,8.0,96,0.00,,,0.13,Wunderground v.1.15,2013-03-23 13:55:00,
2013-03-23 09:00:00,36.1,35.1,29.98,SSE,150,4.0,4.0,96,0.00,,,0.13,Wunderground v.1.15,2013-03-23 14:00:00,
2013-03-23 09:05:00,36.1,35.1,29.99,NW,317,2.0,7.0,96,0.00,,,0.13,Wunderground v.1.15,2013-03-23 14:05:00,
2013-03-23 09:11:00,36.1,35.1,29.99,SE,144,0.0,5.0,96,0.00,,,0.13,Wunderground v.1.15,2013-03-23 14:11:00,
2013-03-23 09:16:00,36.1,35.1,29.99,ESE,109,4.0,6.0,96,0.00,,,0.13,Wunderground v.1.15,2013-03-23 14:16:00,
2013-03-23 09:21:00,36.1,35.1,29.99,SSE,161,2.0,4.0,96,0.00,,,0.13,Wunderground v.1.15,2013-03-23 14:21:00,
2013-03-23 09:26:00,36.3,35.3,29.99,ESE,113,2.0,6.0,96,0.00,,,0.13,Wunderground v.1.15,2013-03-23 14:26:00,
2013-03-23 09:31:00,36.5,35.5,29.99,ESE,111,2.0,3.0,96,0.00,,,0.13,Wunderground v.1.15,2013-03-23 14:31:00,
2013-03-23 09:36:00,36.4,35.4,29.99,SE,136,3.0,9.0,96,0.00,,,0.13,Wunderground v.1.15,2013-03-23 14:36:00,
2013-03-23 09:41:00,36.3,35.3,29.98,SE,132,5.0,9.0,96,0.00,,,0.13,Wunderground v.1.15,2013-03-23 14:41:00,
2013-03-23 09:46:00,36.3,35.3,29.99,SSE,152,1.0,9.0,96,0.00,,,0.13,Wunderground v.1.15,2013-03-23 14:46:00,
2013-03-23 09:51:00,36.3,35.3,29.99,ESE,122,4.0,5.0,96,0.00,,,0.13,Wunderground v.1.15,2013-03-23 14:51:00,
2013-03-23 09:56:00,36.4,35.4,29.99,ENE,78,2.0,7.0,96,0.00,,,0.13,Wunderground v.1.15,2013-03-23 14:56:00,
2013-03-23 10:02:00,36.4,35.4,29.98,ESE,121,5.0,6.0,96,0.00,,,0.13,Wunderground v.1.15,2013-03-23 15:02:00,
2013-03-23 10:07:00,36.4,35.4,29.99,SE,136,2.0,9.0,96,0.00,,,0.13,Wunderground v.1.15,2013-03-23 15:07:00,
2013-03-23 10:12:00,36.6,35.6,29.99,SSW,200,5.0,7.0,96,0.00,,,0.13,Wunderground v.1.15,2013-03-23 15:12:00,
2013-03-23 10:17:00,36.7,35.7,29.99,SSE,160,5.0,8.0,96,0.00,,,0.13,Wunderground v.1.15,2013-03-23 15:17:00,
2013-03-23 10:22:00,37.0,36.0,29.99,SE,136,4.0,6.0,96,0.00,,,0.13,Wunderground v.1.15,2013-03-23 15:22:00,
2013-03-23 10:27:00,37.1,36.1,29.99,SE,124,4.0,10.0,96,0.00,,,0.13,Wunderground v.1.15,2013-03-23 15:27:00,
2013-03-23 10:32:00,37.2,36.2,29.99,ESE,109,5.0,5.0,96,0.00,,,0.13,Wunderground v.1.15,2013-03-23 15:32:00,
2013-03-23 10:37:00,37.4,36.4,29.99,ESE,116,4.0,7.0,96,0.00,,,0.13,Wunderground v.1.15,2013-03-23 15:37:00,
2013-03-23 10:42:00,37.5,36.5,29.99,SE,133,6.0,7.0,96,0.00,,,0.13,Wunderground v.1.15,2013-03-23 15:42:00,
2013-03-23 10:47:00,37.6,36.6,29.99,ESE,115,4.0,8.0,96,0.00,,,0.13,Wunderground v.1.15,2013-03-23 15:47:00,
2013-03-23 10:52:00,37.6,36.6,29.99,SE,140,2.0,8.0,96,0.00,,,0.13,Wunderground v.1.15,2013-03-23 15:52:00,
2013-03-23 10:57:00,37.6,36.6,29.99,SE,130,6.0,8.0,96,0.00,,,0.13,Wunderground v.1.15,2013-03-23 15:57:00,
2013-03-23 11:02:00,37.6,36.6,29.99,East,87,2.0,5.0,96,0.00,,,0.13,Wunderground v.1.15,2013-03-23 16:02:00,
2013-03-23 11:07:00,37.7,36.7,29.99,SSE,159,4.0,6.0,96,0.00,,,0.13,Wunderground v.1.15,2013-03-23 16:07:00,
2013-03-23 11:12:00,37.9,36.9,29.99,ENE,69,2.0,6.0,96,0.00,,,0.13,Wunderground v.1.15,2013-03-23 16:12:00,
2013-03-23 11:17:00,37.9,36.9,29.98,SSE,148,2.0,6.0,96,0.00,,,0.13,Wunderground v.1.15,2013-03-23 16:17:00,
2013-03-23 11:23:00,38.1,37.1,29.98,ESE,123,4.0,7.0,96,0.00,,,0.13,Wunderground v.1.15,2013-03-23 16:23:00,
2013-03-23 11:28:00,38.4,37.4,29.98,South,169,2.0,7.0,96,0.00,,,0.13,Wunderground v.1.15,2013-03-23 16:28:00,
2013-03-23 11:33:00,38.6,37.6,29.98,SE,146,2.0,6.0,96,0.00,,,0.13,Wunderground v.1.15,2013-03-23 16:33:00,
2013-03-23 11:38:00,38.9,37.9,29.98,SE,135,6.0,6.0,96,0.00,,,0.13,Wunderground v.1.15,2013-03-23 16:38:00,
2013-03-23 11:43:00,39.4,38.4,29.98,ENE,70,1.0,4.0,96,0.00,,,0.13,Wunderground v.1.15,2013-03-23 16:43:00,
2013-03-23 11:48:00,39.9,38.9,29.98,ESE,120,1.0,4.0,96,0.00,,,0.13,Wunderground v.1.15,2013-03-23 16:48:00,
2013-03-23 11:53:00,40.5,39.4,29.97,SE,145,1.0,4.0,96,0.00,,,0.13,Wunderground v.1.15,2013-03-23 16:53:00,
2013-03-23 11:58:00,41.2,40.1,29.97,SSE,168,1.0,5.0,96,0.00,,,0.13,Wunderground v.1.15,2013-03-23 16:58:00,
2013-03-23 12:03:00,41.6,40.5,29.97,ESE,120,0.0,5.0,96,0.00,,,0.13,Wunderground v.1.15,2013-03-23 17:03:00,
2013-03-23 12:08:00,42.0,40.9,29.97,ESE,115,1.0,5.0,96,0.00,,,0.13,Wunderground v.1.15,2013-03-23 17:08:00,
2013-03-23 12:13:00,42.3,41.2,29.97,SE,145,4.0,6.0,96,0.00,,,0.13,Wunderground v.1.15,2013-03-23 17:13:00,
2013-03-23 12:18:00,42.4,41.3,29.97,South,190,3.0,6.0,96,0.00,,,0.13,Wunderground v.1.15,2013-03-23 17:18:00,
2013-03-23 12:23:00,42.6,41.5,29.97,West,272,0.0,7.0,96,0.00,,,0.13,Wunderground v.1.15,2013-03-23 17:23:00,
2013-03-23 12:28:00,43.0,41.9,29.97,South,173,0.0,7.0,96,0.00,,,0.13,Wunderground v.1.15,2013-03-23 17:28:00,
2013-03-23 12:33:00,43.2,42.1,29.97,SE,132,1.0,3.0,96,0.00,,,0.13,Wunderground v.1.15,2013-03-23 17:33:00,
2013-03-23 12:38:00,43.4,42.1,29.96,SE,135,0.0,4.0,95,0.00,,,0.13,Wunderground v.1.15,2013-03-23 17:38:00,
2013-03-23 12:43:00,43.8,42.5,29.96,ESE,121,2.0,5.0,95,0.00,,,0.13,Wunderground v.1.15,2013-03-23 17:43:00,
2013-03-23 12:48:00,44.3,42.7,29.96,ESE,112,0.0,5.0,94,0.00,,,0.13,Wunderground v.1.15,2013-03-23 17:48:00,
2013-03-23 12:54:00,44.6,43.0,29.96,SE,130,2.0,4.0,94,0.00,,,0.13,Wunderground v.1.15,2013-03-23 17:54:00,
2013-03-23 12:59:00,44.8,42.6,29.96,SE,131,2.0,4.0,92,0.00,,,0.13,Wunderground v.1.15,2013-03-23 17:59:00,
2013-03-23 13:04:00,45.1,42.9,29.96,SSE,155,5.0,5.0,92,0.00,,,0.13,Wunderground v.1.15,2013-03-23 18:04:00,
2013-03-23 13:09:00,45.2,42.7,29.96,SE,136,1.0,5.0,91,0.00,,,0.13,Wunderground v.1.15,2013-03-23 18:09:00,
2013-03-23 13:14:00,45.5,43.0,29.96,ESE,110,1.0,3.0,91,0.00,,,0.13,Wunderground v.1.15,2013-03-23 18:14:00,
2013-03-23 13:19:00,45.9,43.1,29.96,ESE,115,3.0,3.0,90,0.00,,,0.13,Wunderground v.1.15,2013-03-23 18:19:00,
2013-03-23 13:24:00,46.3,43.5,29.95,ESE,115,2.0,6.0,90,0.00,,,0.13,Wunderground v.1.15,2013-03-23 18:24:00,
2013-03-23 13:29:00,46.6,43.5,29.95,SE,125,2.0,6.0,89,0.00,,,0.13,Wunderground v.1.15,2013-03-23 18:29:00,
2013-03-23 13:34:00,46.9,43.5,29.95,SE,127,2.0,3.0,88,0.00,,,0.13,Wunderground v.1.15,2013-03-23 18:34:00,
2013-03-23 13:39:00,47.2,43.8,29.95,SE,143,1.0,3.0,88,0.00,,,0.13,Wunderground v.1.15,2013-03-23 18:39:00,
2013-03-23 13:44:00,47.6,44.2,29.94,SE,139,0.0,3.0,88,0.00,,,0.13,Wunderground v.1.15,2013-03-23 18:44:00,
2013-03-23 13:49:00,48.1,44.1,29.94,SE,138,1.0,5.0,86,0.00,,,0.13,Wunderground v.1.15,2013-03-23 18:49:00,
2013-03-23 13:54:00,48.3,44.3,29.94,ESE,113,1.0,5.0,86,0.00,,,0.13,Wunderground v.1.15,2013-03-23 18:54:00,
2013-03-23 13:59:00,48.6,44.3,29.94,ESE,113,0.0,5.0,85,0.00,,,0.13,Wunderground v.1.15,2013-03-23 18:59:00,
2013-03-23 14:04:00,49.0,44.7,29.93,SE,140,3.0,3.0,85,0.00,,,0.13,Wunderground v.1.15,2013-03-23 19:04:00,
2013-03-23 14:09:00,49.4,44.8,29.93,SE,141,0.0,5.0,84,0.00,,,0.13,Wunderground v.1.15,2013-03-23 19:09:00,
2013-03-23 14:14:00,49.6,45.0,29.93,SE,130,0.0,3.0,84,0.00,,,0.13,Wunderground v.1.15,2013-03-23 19:14:00,
2013-03-23 14:19:00,50.1,44.8,29.92,East,80,0.0,6.0,82,0.00,,,0.13,Wunderground v.1.15,2013-03-23 19:19:00,
2013-03-23 14:24:00,50.1,44.8,29.92,NE,53,4.0,7.0,82,0.00,,,0.13,Wunderground v.1.15,2013-03-23 19:24:00,
2013-03-23 14:29:00,49.8,44.2,29.92,ENE,61,5.0,8.0,81,0.00,,,0.13,Wunderground v.1.15,2013-03-23 19:29:00,
2013-03-23 14:34:00,50.1,45.5,29.92,SE,126,2.0,5.0,84,0.00,,,0.13,Wunderground v.1.15,2013-03-23 19:34:00,
2013-03-23 14:39:00,50.7,45.4,29.92,SE,124,1.0,5.0,82,0.00,,,0.13,Wunderground v.1.15,2013-03-23 19:39:00,
2013-03-23 14:44:00,51.1,45.5,29.91,ESE,118,2.0,6.0,81,0.00,,,0.13,Wunderground v.1.15,2013-03-23 19:44:00,
2013-03-23 14:49:00,51.5,45.2,29.92,NE,45,2.0,7.0,79,0.00,,,0.13,Wunderground v.1.15,2013-03-23 19:49:00,
2013-03-23 14:54:00,51.4,45.1,29.92,East,81,0.0,5.0,79,0.00,,,0.13,Wunderground v.1.15,2013-03-23 19:54:00,
2013-03-23 14:59:00,51.3,45.0,29.92,SE,141,4.0,5.0,79,0.00,,,0.13,Wunderground v.1.15,2013-03-23 19:59:00,
2013-03-23 15:05:00,51.1,45.1,29.92,SSE,157,0.0,2.0,80,0.00,,,0.13,Wunderground v.1.15,2013-03-23 20:05:00,
2013-03-23 15:10:00,51.0,44.7,29.92,ESE,119,2.0,2.0,79,0.00,,,0.13,Wunderground v.1.15,2013-03-23 20:10:00,
2013-03-23 15:15:00,50.8,44.9,29.92,SE,127,2.0,4.0,80,0.00,,,0.13,Wunderground v.1.15,2013-03-23 20:15:00,
2013-03-23 15:20:00,50.6,44.7,29.91,ESE,122,2.0,3.0,80,0.00,,,0.13,Wunderground v.1.15,2013-03-23 20:20:00,
2013-03-23 15:25:00,50.5,44.6,29.90,SE,137,0.0,5.0,80,0.00,,,0.13,Wunderground v.1.15,2013-03-23 20:25:00,
2013-03-23 15:30:00,50.3,44.0,29.90,ESE,112,4.0,7.0,79,0.00,,,0.13,Wunderground v.1.15,2013-03-23 20:30:00,
2013-03-23 15:35:00,50.1,44.2,29.89,ENE,65,4.0,7.0,80,0.00,,,0.13,Wunderground v.1.15,2013-03-23 20:35:00,
2013-03-23 15:40:00,50.0,43.7,29.89,ESE,113,1.0,3.0,79,0.00,,,0.13,Wunderground v.1.15,2013-03-23 20:40:00,
2013-03-23 15:45:00,50.0,43.7,29.88,East,96,3.0,6.0,79,0.00,,,0.13,Wunderground v.1.15,2013-03-23 20:45:00,
2013-03-23 15:50:00,49.9,44.0,29.89,ESE,122,1.0,3.0,80,0.00,,,0.13,Wunderground v.1.15,2013-03-23 20:50:00,
2013-03-23 15:55:00,49.7,43.5,29.90,SE,141,0.0,3.0,79,0.00,,,0.13,Wunderground v.1.15,2013-03-23 20:55:00,
2013-03-23 16:00:00,49.5,43.3,29.90,ESE,122,1.0,3.0,79,0.00,,,0.13,Wunderground v.1.15,2013-03-23 21:00:00,
2013-03-23 16:05:00,49.3,43.4,29.90,ESE,118,3.0,6.0,80,0.00,,,0.13,Wunderground v.1.15,2013-03-23 21:05:00,
2013-03-23 16:10:00,49.0,43.1,29.90,SE,136,1.0,3.0,80,0.00,,,0.13,Wunderground v.1.15,2013-03-23 21:10:00,
2013-03-23 16:15:00,48.8,43.2,29.89,East,101,0.0,6.0,81,0.00,,,0.13,Wunderground v.1.15,2013-03-23 21:15:00,
2013-03-23 16:20:00,48.6,43.4,29.89,ESE,112,3.0,4.0,82,0.00,,,0.13,Wunderground v.1.15,2013-03-23 21:20:00,
2013-03-23 16:25:00,48.3,42.7,29.90,SE,135,2.0,7.0,81,0.00,,,0.13,Wunderground v.1.15,2013-03-23 21:25:00,
2013-03-23 16:30:00,48.0,42.8,29.89,SE,134,2.0,2.0,82,0.00,,,0.13,Wunderground v.1.15,2013-03-23 21:30:00,
2013-03-23 16:35:00,47.7,42.5,29.90,NE,53,0.0,5.0,82,0.00,,,0.13,Wunderground v.1.15,2013-03-23 21:35:00,
2013-03-23 16:40:00,47.5,42.6,29.91,ESE,122,2.0,2.0,83,0.00,,,0.13,Wunderground v.1.15,2013-03-23 21:40:00,
2013-03-23 16:45:00,47.2,42.3,29.91,ESE,117,2.0,4.0,83,0.00,,,0.13,Wunderground v.1.15,2013-03-23 21:45:00,
2013-03-23 16:50:00,46.9,42.3,29.91,SSE,152,4.0,4.0,84,0.00,,,0.13,Wunderground v.1.15,2013-03-23 21:50:00,
2013-03-23 16:55:00,46.7,42.1,29.90,ESE,123,3.0,8.0,84,0.00,,,0.13,Wunderground v.1.15,2013-03-23 21:55:00,
2013-03-23 17:01:00,46.5,41.9,29.90,SW,219,1.0,4.0,84,0.00,,,0.13,Wunderground v.1.15,2013-03-23 22:01:00,
2013-03-23 17:06:00,46.3,42.0,29.91,SE,143,0.0,5.0,85,0.00,,,0.13,Wunderground v.1.15,2013-03-23 22:06:00,
2013-03-23 17:11:00,46.2,41.9,29.91,ESE,115,3.0,4.0,85,0.00,,,0.13,Wunderground v.1.15,2013-03-23 22:11:00,
2013-03-23 17:16:00,46.1,41.8,29.91,SE,125,2.0,5.0,85,0.00,,,0.13,Wunderground v.1.15,2013-03-23 22:16:00,
2013-03-23 17:21:00,46.0,41.7,29.91,ESE,109,1.0,2.0,85,0.00,,,0.13,Wunderground v.1.15,2013-03-23 22:21:00,
2013-03-23 17:26:00,46.0,42.0,29.91,SE,126,2.0,4.0,86,0.00,,,0.13,Wunderground v.1.15,2013-03-23 22:26:00,
2013-03-23 17:31:00,46.0,42.0,29.91,ESE,103,1.0,1.0,86,0.00,,,0.13,Wunderground v.1.15,2013-03-23 22:31:00,
2013-03-23 17:36:00,45.9,41.9,29.91,SE,134,1.0,8.0,86,0.00,,,0.13,Wunderground v.1.15,2013-03-23 22:36:00,
2013-03-23 17:41:00,45.8,41.9,29.90,East,79,1.0,5.0,86,0.00,,,0.13,Wunderground v.1.15,2013-03-23 22:41:00,
2013-03-23 17:46:00,45.8,41.9,29.89,SE,132,5.0,8.0,86,0.00,,,0.13,Wunderground v.1.15,2013-03-23 22:46:00,
2013-03-23 17:52:00,45.6,42.0,29.88,SE,143,4.0,5.0,87,0.00,,,0.13,Wunderground v.1.15,2013-03-23 22:52:00,
2013-03-23 17:57:00,45.5,41.9,29.87,SE,130,7.0,10.0,87,0.00,,,0.13,Wunderground v.1.15,2013-03-23 22:57:00,
2013-03-23 18:02:00,45.4,42.1,29.86,ESE,115,7.0,10.0,88,0.00,,,0.13,Wunderground v.1.15,2013-03-23 23:02:00,
2013-03-23 18:07:00,45.2,41.9,29.84,SSE,153,4.0,11.0,88,0.00,,,0.13,Wunderground v.1.15,2013-03-23 23:07:00,
2013-03-23 18:12:00,45.1,41.8,29.84,SE,134,7.0,13.0,88,0.00,,,0.13,Wunderground v.1.15,2013-03-23 23:12:00,
2013-03-23 18:18:00,45.0,41.7,29.86,SSE,159,3.0,13.0,88,0.00,,,0.13,Wunderground v.1.15,2013-03-23 23:18:00,
2013-03-23 18:23:00,45.0,41.7,29.86,East,101,3.0,8.0,88,0.00,,,0.13,Wunderground v.1.15,2013-03-23 23:23:00,
2013-03-23 18:28:00,45.1,41.8,29.86,SE,128,4.0,11.0,88,0.00,,,0.13,Wunderground v.1.15,2013-03-23 23:28:00,
2013-03-23 18:33:00,45.1,41.8,29.86,ENE,60,4.0,7.0,88,0.00,,,0.13,Wunderground v.1.15,2013-03-23 23:33:00,
2013-03-23 18:38:00,45.1,41.8,29.85,East,101,2.0,8.0,88,0.00,,,0.13,Wunderground v.1.15,2013-03-23 23:38:00,
2013-03-23 18:43:00,45.0,41.7,29.85,SSW,202,2.0,9.0,88,0.00,,,0.13,Wunderground v.1.15,2013-03-23 23:43:00,
2013-03-23 18:48:00,44.8,41.5,29.85,ESE,119,7.0,9.0,88,0.00,,,0.13,Wunderground v.1.15,2013-03-23 23:48:00,
2013-03-23 18:53:00,44.6,41.3,29.85,SE,136,9.0,12.0,88,0.00,,,0.13,Wunderground v.1.15,2013-03-23 23:53:00,
2013-03-23 18:58:00,44.4,41.4,29.85,ESE,121,11.0,13.0,89,0.00,,,0.13,Wunderground v.1.15,2013-03-23 23:58:00,
2013-03-23 19:03:00,44.2,41.2,29.84,ESE,120,10.0,13.0,89,0.00,,,0.13,Wunderground v.1.15,2013-03-24 00:03:00,
2013-03-23 19:08:00,44.1,41.4,29.84,SSE,148,7.0,13.0,90,0.00,,,0.13,Wunderground v.1.15,2013-03-24 00:08:00,
2013-03-23 19:13:00,44.0,41.3,29.83,ENE,78,8.0,15.0,90,0.00,,,0.13,Wunderground v.1.15,2013-03-24 00:13:00,
2013-03-23 19:18:00,43.9,41.2,29.83,SE,137,6.0,15.0,90,0.00,,,0.13,Wunderground v.1.15,2013-03-24 00:18:00,
2013-03-23 19:23:00,43.8,41.1,29.83,ESE,111,11.0,13.0,90,0.00,,,0.13,Wunderground v.1.15,2013-03-24 00:23:00,
2013-03-23 19:29:00,43.8,41.1,29.82,ESE,121,11.0,15.0,90,0.00,,,0.13,Wunderground v.1.15,2013-03-24 00:29:00,
2013-03-23 19:34:00,43.7,41.0,29.83,SE,144,8.0,15.0,90,0.00,,,0.13,Wunderground v.1.15,2013-03-24 00:34:00,
2013-03-23 19:39:00,43.7,41.0,29.83,ESE,104,4.0,15.0,90,0.00,,,0.13,Wunderground v.1.15,2013-03-24 00:39:00,
2013-03-23 19:44:00,43.7,41.2,29.83,South,173,9.0,12.0,91,0.00,,,0.13,Wunderground v.1.15,2013-03-24 00:44:00,
2013-03-23 19:49:00,43.7,41.2,29.82,ESE,102,5.0,13.0,91,0.00,,,0.13,Wunderground v.1.15,2013-03-24 00:49:00,
2013-03-23 19:54:00,43.6,41.1,29.82,NE,48,4.0,11.0,91,0.00,,,0.13,Wunderground v.1.15,2013-03-24 00:54:00,
2013-03-23 19:59:00,43.5,41.0,29.81,ESE,115,4.0,13.0,91,0.00,,,0.13,Wunderground v.1.15,2013-03-24 00:59:00,
2013-03-23 20:04:00,43.5,41.0,29.80,East,99,10.0,12.0,91,0.00,,,0.13,Wunderground v.1.15,2013-03-24 01:04:00,
2013-03-23 20:09:00,43.4,40.9,29.81,SSE,165,8.0,14.0,91,0.00,,,0.13,Wunderground v.1.15,2013-03-24 01:09:00,
2013-03-23 20:14:00,43.3,40.8,29.80,SSE,153,11.0,13.0,91,0.00,,,0.13,Wunderground v.1.15,2013-03-24 01:14:00,
2013-03-23 20:19:00,43.3,41.1,29.80,SE,144,10.0,15.0,92,0.00,,,0.13,Wunderground v.1.15,2013-03-24 01:19:00,
2013-03-23 20:24:00,43.2,41.0,29.79,SSE,155,9.0,15.0,92,0.00,,,0.13,Wunderground v.1.15,2013-03-24 01:24:00,
2013-03-23 20:29:00,43.2,41.0,29.80,ESE,115,10.0,15.0,92,0.00,,,0.13,Wunderground v.1.15,2013-03-24 01:29:00,
2013-03-23 20:34:00,43.2,41.0,29.80,East,91,13.0,16.0,92,0.00,,,0.13,Wunderground v.1.15,2013-03-24 01:34:00,
2013-03-23 20:39:00,43.1,40.9,29.78,SE,131,10.0,16.0,92,0.00,,,0.13,Wunderground v.1.15,2013-03-24 01:39:00,
2013-03-23 20:44:00,43.1,40.9,29.76,ENE,74,13.0,17.0,92,0.00,,,0.13,Wunderground v.1.15,2013-03-24 01:44:00,
2013-03-23 20:49:00,43.0,40.8,29.75,SE,143,14.0,17.0,92,0.00,,,0.13,Wunderground v.1.15,2013-03-24 01:49:00,
2013-03-23 20:54:00,42.9,40.7,29.75,ESE,108,9.0,16.0,92,0.00,,,0.13,Wunderground v.1.15,2013-03-24 01:54:00,
2013-03-23 20:59:00,42.9,40.7,29.77,SSE,148,5.0,17.0,92,0.00,,,0.13,Wunderground v.1.15,2013-03-24 01:59:00,
2013-03-23 21:04:00,43.0,40.8,29.77,SE,140,6.0,13.0,92,0.00,,,0.13,Wunderground v.1.15,2013-03-24 02:04:00,
2013-03-23 21:09:00,43.0,40.8,29.76,ESE,119,10.0,15.0,92,0.00,,,0.13,Wunderground v.1.15,2013-03-24 02:09:00,
2013-03-23 21:14:00,43.0,40.8,29.75,SSE,150,6.0,15.0,92,0.00,,,0.13,Wunderground v.1.15,2013-03-24 02:14:00,
2013-03-23 21:19:00,43.0,40.8,29.76,SE,132,7.0,17.0,92,0.00,,,0.13,Wunderground v.1.15,2013-03-24 02:19:00,
2013-03-23 21:24:00,43.0,40.8,29.76,SSE,155,7.0,16.0,92,0.00,,,0.13,Wunderground v.1.15,2013-03-24 02:24:00,
2013-03-23 21:29:00,43.0,40.8,29.76,East,99,11.0,16.0,92,0.00,,,0.13,Wunderground v.1.15,2013-03-24 02:29:00,
2013-03-23 21:34:00,43.1,40.9,29.77,SSE,161,6.0,13.0,92,0.00,,,0.13,Wunderground v.1.15,2013-03-24 02:34:00,
2013-03-23 21:39:00,43.1,40.9,29.78,ENE,69,7.0,13.0,92,0.00,,,0.13,Wunderground v.1.15,2013-03-24 02:39:00,
2013-03-23 21:44:00,43.2,41.0,29.79,SSW,194,5.0,11.0,92,0.00,,,0.13,Wunderground v.1.15,2013-03-24 02:44:00,
2013-03-23 21:49:00,43.2,41.0,29.80,ESE,109,4.0,11.0,92,0.00,,,0.13,Wunderground v.1.15,2013-03-24 02:49:00,
2013-03-23 21:54:00,43.3,41.1,29.81,ESE,103,4.0,8.0,92,0.00,,,0.13,Wunderground v.1.15,2013-03-24 02:54:00,
2013-03-23 21:59:00,43.4,41.2,29.81,SE,130,0.0,8.0,92,0.00,,,0.13,Wunderground v.1.15,2013-03-24 02:59:00,
2013-03-23 22:04:00,43.4,41.2,29.80,SSE,158,1.0,7.0,92,0.00,,,0.13,Wunderground v.1.15,2013-03-24 03:04:00,
2013-03-23 22:09:00,43.3,41.1,29.79,ESE,119,3.0,8.0,92,0.00,,,0.13,Wunderground v.1.15,2013-03-24 03:09:00,
2013-03-23 22:14:00,43.1,41.2,29.79,ESE,123,9.0,10.0,93,0.00,,,0.14,Wunderground v.1.15,2013-03-24 03:14:00,
2013-03-23 22:19:00,43.0,41.1,29.78,SE,127,5.0,11.0,93,0.00,,,0.14,Wunderground v.1.15,2013-03-24 03:19:00,
2013-03-23 22:25:00,42.9,41.3,29.79,SE,139,6.0,9.0,94,0.00,,,0.14,Wunderground v.1.15,2013-03-24 03:25:00,
2013-03-23 22:30:00,42.8,41.2,29.78,ESE,122,5.0,5.0,94,0.00,,,0.14,Wunderground v.1.15,2013-03-24 03:30:00,
2013-03-23 22:35:00,42.7,41.1,29.78,ESE,113,10.0,10.0,94,0.00,,,0.15,Wunderground v.1.15,2013-03-24 03:35:00,
2013-03-23 22:40:00,42.7,41.1,29.79,SE,129,5.0,5.0,94,0.00,,,0.15,Wunderground v.1.15,2013-03-24 03:40:00,
2013-03-23 22:45:00,42.6,41.0,29.79,East,80,2.0,8.0,94,0.07,,,0.16,Wunderground v.1.15,2013-03-24 03:45:00,
2013-03-23 22:50:00,42.6,41.3,29.78,WNW,287,6.0,6.0,95,0.07,,,0.17,Wunderground v.1.15,2013-03-24 03:50:00,
2013-03-23 22:55:00,42.5,41.2,29.76,East,88,10.0,13.0,95,0.21,,,0.19,Wunderground v.1.15,2013-03-24 03:55:00,
2013-03-23 23:00:00,42.5,41.2,29.77,ENE,69,11.0,11.0,95,0.18,,,0.20,Wunderground v.1.15,2013-03-24 04:00:00,
2013-03-23 23:01:00,42.5,41.2,29.78,WNW,286,3.0,11.0,95,0.18,,,0.21,Wunderground v.1.15,2013-03-24 04:01:00,
2013-03-23 23:06:00,42.5,41.2,29.75,ESE,115,11.0,11.0,95,0.25,,,0.23,Wunderground v.1.15,2013-03-24 04:06:00,
2013-03-23 23:10:00,42.5,41.2,29.79,SW,215,6.0,6.0,95,0.22,,,0.25,Wunderground v.1.15,2013-03-24 04:10:00,
2013-03-23 23:16:00,42.7,41.4,29.81,SE,138,4.0,7.0,95,0.13,,,0.26,Wunderground v.1.15,2013-03-24 04:16:00,
2013-03-23 23:21:00,42.9,41.6,29.77,East,86,5.0,13.0,95,0.23,,,0.28,Wunderground v.1.15,2013-03-24 04:21:00,
2013-03-23 23:26:00,43.1,42.0,29.77,WSW,248,7.0,16.0,96,0.20,,,0.29,Wunderground v.1.15,2013-03-24 04:26:00,
2013-03-23 23:31:00,43.1,42.0,29.77,SE,127,3.0,7.0,96,0.18,,,0.30,Wunderground v.1.15,2013-03-24 04:31:00,
2013-03-23 23:36:00,43.4,42.3,29.78,SSE,167,4.0,10.0,96,0.17,,,0.32,Wunderground v.1.15,2013-03-24 04:36:00,
2013-03-23 23:41:00,43.6,42.5,29.78,ESE,123,1.0,8.0,96,0.18,,,0.33,Wunderground v.1.15,2013-03-24 04:41:00,
2013-03-23 23:46:00,43.9,42.8,29.78,SSE,151,2.0,10.0,96,0.08,,,0.34,Wunderground v.1.15,2013-03-24 04:46:00,
2013-03-23 23:51:00,44.4,43.3,29.77,South,179,0.0,6.0,96,0.08,,,0.34,Wunderground v.1.15,2013-03-24 04:51:00,
2013-03-23 23:56:00,44.6,43.5,29.77,SW,227,2.0,8.0,96,0.10,,,0.35,Wunderground v.1.15,2013-03-24 04:56:00,